User: anonymous   Login
Location: Unspecified
(0.0000°N, 0.0000°E)
Time: 21:51:32
(UTC+00:00)
Language:

Transit 2A - Orbit

View from above orbital plane
View from above orbital plane
View from above satellite
View from above satellite

Ground track
Ground track

The orbit data is extracted from the following two-line orbital elements,

1    45U 60007A   17290.83325496 -.00000043 +00000-0 +16326-4 0  9991
2    45 066.6947 066.4571 0261763 303.3816 054.2481 14.33571703926316
Epoch (UTC): 17 October 2017 19:59:53
Eccentricity: 0.0261763
inclination: 66.6947°
perigee height: 592 km
apogee height: 967 km
right ascension of ascending node: 66.4571°
argument of perigee: 303.3816°
revolutions per day: 14.33571703
mean anomaly at epoch: 54.2481°
orbit number at epoch: 92631

The dashed part of the orbit path shows where the satellite is in the earth's shadow,  

DLR